Regional Weather Roundup
Issued by NWS Raleigh/Durham, NC

Home | Current Version | Previous Version | Text Only | Print | Product List | Glossary On
Versions: 1 2 3 4 5 6 7 8 9 10 11 12 13 14 15 16 17 18 19 20 21 22 23 24 25 26 27 28
000
ASUS42 KRAH 252110
RWRRAH
NORTH CAROLINA WEATHER ROUNDUP
NATIONAL WEATHER SERVICE RALEIGH NC
500 PM EDT SAT JUN 25 2016

NOTE: "FAIR" INDICATES FEW OR NO CLOUDS BELOW 12,000 FEET WITH NO
SIGNIFICANT WEATHER AND/OR OBSTRUCTIONS TO VISIBILITY.

NCZ001-053-055-056-065-067-252200-
WESTERN NORTH CAROLINA

CITY           SKY/WX    TMP DP  RH WIND       PRES   REMARKS
ASHEVILLE      SUNNY     90  53  28 N13G18    30.15F
JEFFERSON      CLOUDY    73  64  73 S3        30.24S
MORGANTON      PTSUNNY   88  64  44 E6        30.16F
HICKORY        MOSUNNY   86  66  51 NE9       30.12S
RUTHERFORDTON  MOSUNNY   91  61  36 NE5       30.10S
MOUNT AIRY     MOSUNNY   83  70  62 E8        30.17S
BOONE          PTSUNNY   80  63  56 SE5       30.23F
$$

NCZ021-022-025-041-071-084-088-252200-
CENTRAL NORTH CAROLINA

CITY           SKY/WX    TMP DP  RH WIND       PRES   REMARKS
CHARLOTTE      MOSUNNY   85  67  54 NE10G21   30.11R
GREENSBORO     MOSUNNY   83  66  56 N9        30.13S
WINSTON-SALEM  SUNNY     83  66  56 NE12      30.15S
RALEIGH-DURHAM MOSUNNY   83  71  67 NE12      30.12R
FORT BRAGG     MOSUNNY   85  72  63 VRB5      30.07F
FAYETTEVILLE   MOSUNNY   88  72  58 N13       30.07F
BURLINGTON     PTSUNNY   81  69  67 NE10      30.13R
LAURINBURG     MOSUNNY   87  72  60 NE13      30.08S HAZE
$$

NCZ011-015-027-028-043-044-047-080-103-252200-
NORTHEASTERN NORTH CAROLINA

CITY           SKY/WX    TMP DP  RH WIND       PRES   REMARKS
ROCKY MT-WILSO MOSUNNY   81  70  69 NE9       30.11S
GREENVILLE     MOSUNNY   84  72  65 NE7       30.11S
WASHINGTON     MOSUNNY   80  71  72 NE8       30.10R
ELIZABETH CITY CLOUDY    74  66  76 NE16      30.15R
MANTEO         CLOUDY    71  71  98 NE13G20   30.13R
CAPE HATTERAS  CLOUDY    76  69  79 N10       30.10R
$$

NCZ078-087-090-091-093-098-101-252200-
SOUTHEASTERN NORTH CAROLINA

CITY           SKY/WX    TMP DP  RH WIND       PRES   REMARKS
LUMBERTON      CLOUDY    82  72  71 SE7       30.07S
GOLDSBORO      MOSUNNY   87  72  61 NE12      30.07S
KINSTON        MOSUNNY   86  70  58 NE10G16   30.09S
KENANSVILLE    PTSUNNY   86  70  59 NE5       30.08R
NEW BERN       CLOUDY    80  70  71 NE14      30.11R
CHERRY POINT   CLOUDY    81  72  74 NE15      30.09R
BEAUFORT       PTSUNNY   79  73  82 E9        30.08S
JACKSONVILLE   LGT RAIN  82  74  76 S8        30.06S
WILMINGTON     CLOUDY    80  74  81 E8        30.07R
$$





USA.gov is the U.S. government's official web portal to all federal, state and local government web resources and services.